,,,PA_Meas_PMT16A,,PR_Meas_QMR101_102,,RH_Meas_QMH101,,SR_Meas_QMS101,,TA_Meas_QMH101,,GenWind,,GenWind,
date,time,status,PA,status,PR,status,RH,status,SR,status,TA,status,DirAvg,status,SpdAvg,
2010-06-08, 00:00:05,VALID,1004.64,VALID,0,VALID,97.9777,VALID,0,VALID,24.2857,VALID,31,VALID,0.0277344,
2010-06-08, 00:01:05,VALID,1004.63,VALID,0,VALID,97.9853,VALID,0,VALID,24.2662,VALID,31,VALID,0.317187,
2010-06-08, 00:02:05,VALID,1004.61,VALID,0,VALID,98.0235,VALID,0,VALID,24.2486,VALID,31,VALID,0.238281,
2010-06-08, 00:03:05,VALID,1004.6,VALID,0,VALID,98.0387,VALID,0,VALID,24.2097,VALID,31,VALID,0.345313,
2010-06-08, 00:04:04,VALID,1004.59,VALID,0,VALID,98.0693,VALID,0,VALID,24.1494,VALID,31,VALID,0.349609,
2010-06-08, 00:05:04,VALID,1004.58,VALID,0,VALID,98.054,VALID,0,VALID,24.1318,VALID,31,VALID,0.495703,
2010-06-08, 00:06:04,VALID,1004.58,VALID,0,VALID,98.0616,VALID,0,VALID,24.1318,VALID,31,VALID,0.532031,
2010-06-08, 00:07:04,VALID,1004.58,VALID,0,VALID,98.054,VALID,0,VALID,24.1318,VALID,31,VALID,0.557031,
2010-06-08, 00:08:04,VALID,1004.59,VALID,0,VALID,98.0464,VALID,0,VALID,24.1123,VALID,31,VALID,0.576172,
2010-06-08, 00:09:04,VALID,1004.57,VALID,0,VALID,98.0006,VALID,0,VALID,24.1707,VALID,19,VALID,0.61875,
2010-06-08, 00:10:04,VALID,1004.56,VALID,0,VALID,98.0006,VALID,0,VALID,24.1689,VALID,18,VALID,0.751562,
2010-06-08, 00:11:04,VALID,1004.53,VALID,0,VALID,97.993,VALID,0,VALID,24.2097,VALID,18,VALID,0.727344,
2010-06-08, 00:12:04,VALID,1004.5,VALID,0,VALID,97.993,VALID,0,VALID,24.1902,VALID,18,VALID,0.628906,
2010-06-08, 00:13:04,VALID,1004.49,VALID,0,VALID,97.993,VALID,0,VALID,24.1902,VALID,18,VALID,0.523438,
2010-06-08, 00:14:04,VALID,1004.51,VALID,0,VALID,98.0082,VALID,0,VALID,24.1707,VALID,18,VALID,0.307031,
2010-06-08, 00:15:04,VALID,1004.49,VALID,0,VALID,98.0235,VALID,0,VALID,24.1494,VALID,18,VALID,0.287891,
2010-06-08, 00:16:04,VALID,1004.51,VALID,0,VALID,97.9701,VALID,0,VALID,24.1494,VALID,18,VALID,0,
2010-06-08, 00:17:04,VALID,1004.47,VALID,0,VALID,97.9853,VALID,0,VALID,24.1902,VALID,18,VALID,0,
2010-06-08, 00:18:04,VALID,1004.51,VALID,0,VALID,97.9701,VALID,0,VALID,24.2078,VALID,18,VALID,0,
2010-06-08, 00:19:04,VALID,1004.52,VALID,0,VALID,97.9396,VALID,0,VALID,24.2273,VALID,18,VALID,0.184766,
2010-06-08, 00:20:04,VALID,1004.52,VALID,0,VALID,97.9243,VALID,0,VALID,24.2468,VALID,18,VALID,0.582422,
2010-06-08, 00:21:04,VALID,1004.5,VALID,0,VALID,97.9319,VALID,0,VALID,24.2662,VALID,18,VALID,0.490234,
2010-06-08, 00:22:04,VALID,1004.5,VALID,0,VALID,97.9396,VALID,0,VALID,24.307,VALID,18,VALID,0.562109,
2010-06-08, 00:23:04,VALID,1004.46,VALID,0,VALID,97.9014,VALID,0,VALID,24.3052,VALID,18,VALID,0.533203,
2010-06-08, 00:24:04,VALID,1004.46,VALID,0,VALID,97.9167,VALID,0,VALID,24.3265,VALID,18,VALID,0.706641,
2010-06-08, 00:25:04,VALID,1004.45,VALID,0,VALID,97.9396,VALID,0,VALID,24.3052,VALID,18,VALID,0.697266,
2010-06-08, 00:26:04,VALID,1004.43,VALID,0,VALID,97.9319,VALID,0,VALID,24.2857,VALID,18,VALID,0.719141,
2010-06-08, 00:27:04,VALID,1004.42,VALID,0,VALID,97.9625,VALID,0,VALID,24.2681,VALID,18,VALID,0.615234,
2010-06-08, 00:28:04,VALID,1004.4,VALID,0,VALID,97.9777,VALID,0,VALID,24.2273,VALID,18,VALID,0.399609,
2010-06-08, 00:29:04,VALID,1004.37,VALID,0,VALID,97.9777,VALID,0,VALID,24.2291,VALID,18,VALID,0.567969,
2010-06-08, 00:30:04,VALID,1004.36,VALID,0,VALID,97.9625,VALID,0,VALID,24.2291,VALID,18,VALID,0.623047,
2010-06-08, 00:31:04,VALID,1004.37,VALID,0,VALID,97.9625,VALID,0,VALID,24.2291,VALID,18,VALID,0.473828,
2010-06-08, 00:32:04,VALID,1004.33,VALID,0,VALID,97.993,VALID,0,VALID,24.2097,VALID,18,VALID,0.520703,
2010-06-08, 00:33:04,VALID,1004.37,VALID,0,VALID,98.0006,VALID,0,VALID,24.1902,VALID,18,VALID,0.5,
2010-06-08, 00:34:04,VALID,1004.37,VALID,0,VALID,97.9853,VALID,0,VALID,24.1689,VALID,18,VALID,0.316797,
2010-06-08, 00:35:04,VALID,1004.37,VALID,0,VALID,97.9853,VALID,0,VALID,24.1707,VALID,18,VALID,0.486719,
2010-06-08, 00:36:04,VALID,1004.36,VALID,0,VALID,97.9777,VALID,0,VALID,24.1902,VALID,18,VALID,0.465234,
2010-06-08, 00:37:04,VALID,1004.36,VALID,0,VALID,97.9472,VALID,0,VALID,24.2291,VALID,18,VALID,0.526172,
2010-06-08, 00:38:04,VALID,1004.33,VALID,0,VALID,97.9396,VALID,0,VALID,24.2681,VALID,18,VALID,0.567578,
2010-06-08, 00:39:04,VALID,1004.29,VALID,0,VALID,97.909,VALID,0,VALID,24.2875,VALID,18,VALID,0.564062,
2010-06-08, 00:40:04,VALID,1004.28,VALID,0,VALID,97.9625,VALID,0,VALID,24.2468,VALID,18,VALID,0.576172,
2010-06-08, 00:41:04,VALID,1004.29,VALID,0,VALID,97.9396,VALID,0,VALID,24.2875,VALID,18,VALID,0.587891,
2010-06-08, 00:42:04,VALID,1004.27,VALID,0,VALID,97.9396,VALID,0,VALID,24.2662,VALID,17,VALID,0.617578,
2010-06-08, 00:43:04,VALID,1004.27,VALID,0,VALID,97.9625,VALID,0,VALID,24.2291,VALID,17,VALID,0.525781,
2010-06-08, 00:44:04,VALID,1004.26,VALID,0,VALID,97.9853,VALID,0,VALID,24.2097,VALID,17,VALID,0.556641,
2010-06-08, 00:45:04,VALID,1004.25,VALID,0,VALID,97.9853,VALID,0,VALID,24.1884,VALID,17,VALID,0.458203,
2010-06-08, 00:46:04,VALID,1004.28,VALID,0,VALID,97.9853,VALID,0,VALID,24.1902,VALID,17,VALID,0.516016,
2010-06-08, 00:47:04,VALID,1004.3,VALID,0,VALID,97.993,VALID,0,VALID,24.1707,VALID,17,VALID,0.393359,
2010-06-08, 00:48:04,VALID,1004.28,VALID,0,VALID,97.9777,VALID,0,VALID,24.1902,VALID,17,VALID,0.469922,
2010-06-08, 00:49:04,VALID,1004.26,VALID,0,VALID,97.9853,VALID,0,VALID,24.1689,VALID,17,VALID,0.315234,
2010-06-08, 00:50:04,VALID,1004.25,VALID,0,VALID,97.993,VALID,0,VALID,24.1689,VALID,17,VALID,0.335547,
2010-06-08, 00:51:04,VALID,1004.24,VALID,0,VALID,97.9701,VALID,0,VALID,24.1494,VALID,17,VALID,0.373437,
2010-06-08, 00:52:04,VALID,1004.23,VALID,0,VALID,97.9472,VALID,0,VALID,24.2291,VALID,17,VALID,0.361719,
2010-06-08, 00:53:04,VALID,1004.22,VALID,0,VALID,97.9243,VALID,0,VALID,24.2486,VALID,17,VALID,0.29375,
2010-06-08, 00:54:04,VALID,1004.2,VALID,0,VALID,97.9319,VALID,0,VALID,24.2875,VALID,17,VALID,0.0375,
2010-06-08, 00:55:04,VALID,1004.26,VALID,0,VALID,97.9396,VALID,0,VALID,24.2681,VALID,17,VALID,0,
2010-06-08, 00:56:04,VALID,1004.22,VALID,0,VALID,97.9777,VALID,0,VALID,24.2078,VALID,17,VALID,0.144922,
2010-06-08, 00:57:04,VALID,1004.21,VALID,0,VALID,97.993,VALID,0,VALID,24.1689,VALID,17,VALID,0.346484,
2010-06-08, 00:58:04,VALID,1004.19,VALID,0,VALID,97.993,VALID,0,VALID,24.1707,VALID,17,VALID,0.292578,
2010-06-08, 00:59:04,VALID,1004.16,VALID,0,VALID,98.0082,VALID,0,VALID,24.13,VALID,17,VALID,0.324609,
2010-06-08, 01:00:04,VALID,1004.15,VALID,0,VALID,97.9853,VALID,0,VALID,24.1707,VALID,17,VALID,0.217969,
2010-06-08, 01:01:04,VALID,1004.12,VALID,0,VALID,97.993,VALID,0,VALID,24.1689,VALID,17,VALID,0,
2010-06-08, 01:02:04,VALID,1004.08,VALID,0,VALID,98.0006,VALID,0,VALID,24.1494,VALID,17,VALID,0,
2010-06-08, 01:03:04,VALID,1004.07,VALID,0,VALID,98.0311,VALID,0,VALID,24.1494,VALID,17,VALID,0,
2010-06-08, 01:04:04,VALID,1004.08,VALID,0,VALID,98.0082,VALID,0,VALID,24.13,VALID,17,VALID,0.160938,
2010-06-08, 01:05:04,VALID,1004.05,VALID,0,VALID,98.0159,VALID,0.100563,VALID,24.13,VALID,17,VALID,0.222266,
2010-06-08, 01:06:04,VALID,1004.04,VALID,0,VALID,98.0082,VALID,0,VALID,24.1087,VALID,17,VALID,0.3,
2010-06-08, 01:07:04,VALID,1004,VALID,0,VALID,98.0235,VALID,0.100563,VALID,24.13,VALID,17,VALID,0.508594,
2010-06-08, 01:08:04,VALID,1003.98,VALID,0,VALID,98.0082,VALID,0,VALID,24.1513,VALID,17,VALID,0.508984,
2010-06-08, 01:09:04,VALID,1003.95,VALID,0,VALID,98.0159,VALID,0,VALID,24.13,VALID,17,VALID,0.470313,
2010-06-08, 01:10:04,VALID,1003.95,VALID,0,VALID,98.0387,VALID,0.100563,VALID,24.13,VALID,14,VALID,0.35,
2010-06-08, 01:11:04,VALID,1003.95,VALID,0,VALID,98.0464,VALID,0,VALID,24.1105,VALID,14,VALID,0.424609,
2010-06-08, 01:12:04,VALID,1003.93,VALID,0,VALID,98.054,VALID,0,VALID,24.0716,VALID,14,VALID,0.360938,
2010-06-08, 01:13:04,VALID,1003.92,VALID,0,VALID,98.0464,VALID,0,VALID,24.0716,VALID,14,VALID,0.229297,
2010-06-08, 01:14:04,VALID,1003.94,VALID,0,VALID,98.0311,VALID,0.100563,VALID,24.1123,VALID,14,VALID,0.251563,
2010-06-08, 01:15:04,VALID,1003.9,VALID,0,VALID,98.0387,VALID,0.100563,VALID,24.091,VALID,14,VALID,0.320703,
2010-06-08, 01:16:04,VALID,1003.87,VALID,0,VALID,98.054,VALID,0,VALID,24.0929,VALID,14,VALID,0.357031,
2010-06-08, 01:17:04,VALID,1003.84,VALID,0,VALID,98.0235,VALID,0,VALID,24.1123,VALID,14,VALID,0.328516,
2010-06-08, 01:18:04,VALID,1003.83,VALID,0,VALID,98.0311,VALID,0,VALID,24.1318,VALID,14,VALID,0.459766,
2010-06-08, 01:19:04,VALID,1003.85,VALID,0,VALID,98.0006,VALID,0,VALID,24.1336,VALID,14,VALID,0.490625,
2010-06-08, 01:20:04,VALID,1003.87,VALID,0,VALID,98.0159,VALID,0,VALID,24.1123,VALID,14,VALID,0.416016,
2010-06-08, 01:21:04,VALID,1003.86,VALID,0,VALID,98.0387,VALID,0,VALID,24.1123,VALID,14,VALID,0.377734,
2010-06-08, 01:22:04,VALID,1003.83,VALID,0,VALID,98.054,VALID,0,VALID,24.0929,VALID,14,VALID,0.471094,
2010-06-08, 01:23:04,VALID,1003.81,VALID,0,VALID,98.0616,VALID,0,VALID,24.0539,VALID,14,VALID,0.489844,
2010-06-08, 01:24:04,VALID,1003.81,VALID,0,VALID,98.0769,VALID,0,VALID,24.0345,VALID,14,VALID,0.609375,
2010-06-08, 01:25:04,VALID,1003.81,VALID,0,VALID,98.0693,VALID,0,VALID,24.015,VALID,14,VALID,0.487109,
2010-06-08, 01:26:04,VALID,1003.78,VALID,0,VALID,98.0845,VALID,0,VALID,24.0168,VALID,14,VALID,0.314453,
2010-06-08, 01:27:04,VALID,1003.8,VALID,0,VALID,98.0769,VALID,0,VALID,23.9955,VALID,14,VALID,0.244531,
2010-06-08, 01:28:04,VALID,1003.8,VALID,0,VALID,98.0921,VALID,0,VALID,23.9566,VALID,14,VALID,0.276953,
2010-06-08, 01:29:04,VALID,1003.81,VALID,0,VALID,98.1074,VALID,0,VALID,23.9371,VALID,14,VALID,0.335547,
2010-06-08, 01:30:04,VALID,1003.78,VALID,0,VALID,98.0921,VALID,0,VALID,23.9779,VALID,14,VALID,0.327734,
2010-06-08, 01:31:04,VALID,1003.8,VALID,0,VALID,98.0921,VALID,0,VALID,23.9353,VALID,14,VALID,0.348828,
2010-06-08, 01:32:04,VALID,1003.78,VALID,0,VALID,98.0921,VALID,0,VALID,23.9353,VALID,14,VALID,0.536719,
2010-06-08, 01:33:04,VALID,1003.78,VALID,0,VALID,98.0998,VALID,0,VALID,23.9159,VALID,14,VALID,0.614844,
2010-06-08, 01:34:04,VALID,1003.75,VALID,0,VALID,98.0845,VALID,0,VALID,23.9353,VALID,14,VALID,0.517187,
2010-06-08, 01:35:04,VALID,1003.75,VALID,0,VALID,98.0998,VALID,0,VALID,23.8946,VALID,14,VALID,0.508594,
2010-06-08, 01:36:04,VALID,1003.76,VALID,0,VALID,98.0921,VALID,0.100563,VALID,23.914,VALID,14,VALID,0.579297,
2010-06-08, 01:37:04,VALID,1003.77,VALID,0,VALID,98.0998,VALID,0,VALID,23.9353,VALID,14,VALID,0.537109,
2010-06-08, 01:38:04,VALID,1003.74,VALID,0,VALID,98.0845,VALID,0,VALID,23.9159,VALID,14,VALID,0.431641,
2010-06-08, 01:39:04,VALID,1003.74,VALID,0,VALID,98.0845,VALID,0,VALID,23.9371,VALID,14,VALID,0.348437,
2010-06-08, 01:40:04,VALID,1003.73,VALID,0,VALID,98.0998,VALID,0,VALID,23.8964,VALID,14,VALID,0.435937,
2010-06-08, 01:41:04,VALID,1003.69,VALID,0,VALID,98.0845,VALID,0,VALID,23.8964,VALID,14,VALID,0.228516,
2010-06-08, 01:42:04,VALID,1003.68,VALID,0,VALID,98.0693,VALID,0,VALID,23.9353,VALID,14,VALID,0.282422,
2010-06-08, 01:43:04,VALID,1003.68,VALID,0,VALID,98.0464,VALID,0,VALID,23.9353,VALID,14,VALID,0.227344,
2010-06-08, 01:44:04,VALID,1003.65,VALID,0,VALID,98.0235,VALID,0,VALID,23.9742,VALID,14,VALID,0.223047,
2010-06-08, 01:45:04,VALID,1003.66,VALID,0,VALID,98.0387,VALID,0,VALID,23.9955,VALID,14,VALID,0.45,
2010-06-08, 01:46:04,VALID,1003.65,VALID,0,VALID,98.054,VALID,0,VALID,23.9742,VALID,14,VALID,0.432031,
2010-06-08, 01:47:04,VALID,1003.63,VALID,0,VALID,98.054,VALID,0.100563,VALID,23.9548,VALID,14,VALID,0.519922,
2010-06-08, 01:48:04,VALID,1003.66,VALID,0,VALID,98.0769,VALID,0,VALID,23.9548,VALID,14,VALID,0.43125,
2010-06-08, 01:49:04,VALID,1003.66,VALID,0,VALID,98.0769,VALID,0,VALID,23.9159,VALID,14,VALID,0.553125,
2010-06-08, 01:50:04,VALID,1003.68,VALID,0,VALID,98.054,VALID,0,VALID,23.9353,VALID,12,VALID,0.534375,
2010-06-08, 01:51:04,VALID,1003.68,VALID,0,VALID,98.0845,VALID,0,VALID,23.9159,VALID,12,VALID,0.464453,
2010-06-08, 01:52:04,VALID,1003.69,VALID,0,VALID,98.0387,VALID,0,VALID,23.9371,VALID,12,VALID,0.424219,
2010-06-08, 01:53:04,VALID,1003.71,VALID,0,VALID,98.0616,VALID,0,VALID,23.9159,VALID,11,VALID,0.552734,
2010-06-08, 01:54:04,VALID,1003.7,VALID,0,VALID,98.0464,VALID,0,VALID,23.9371,VALID,11,VALID,0.46875,
2010-06-08, 01:55:04,VALID,1003.68,VALID,0,VALID,98.0311,VALID,0,VALID,23.9548,VALID,11,VALID,0.302734,
2010-06-08, 01:56:04,VALID,1003.72,VALID,0,VALID,98.0159,VALID,0,VALID,23.9742,VALID,11,VALID,0.116016,
2010-06-08, 01:57:04,VALID,1003.72,VALID,0,VALID,98.0235,VALID,0,VALID,23.9742,VALID,11,VALID,0.11875,
2010-06-08, 01:58:04,VALID,1003.7,VALID,0,VALID,98.0311,VALID,0,VALID,23.9937,VALID,11,VALID,0.235938,
2010-06-08, 01:59:04,VALID,1003.73,VALID,0,VALID,98.0082,VALID,0,VALID,24.0132,VALID,11,VALID,0.249219,
2010-06-08, 02:00:04,VALID,1003.75,VALID,0,VALID,98.0082,VALID,0,VALID,24.0114,VALID,11,VALID,0.360156,
2010-06-08, 02:01:04,VALID,1003.76,VALID,0,VALID,98.0082,VALID,0,VALID,24.0132,VALID,11,VALID,0.435156,
2010-06-08, 02:02:04,VALID,1003.73,VALID,0,VALID,98.0159,VALID,0,VALID,23.9937,VALID,11,VALID,0.597266,
2010-06-08, 02:03:04,VALID,1003.76,VALID,0,VALID,97.993,VALID,0,VALID,24.0326,VALID,11,VALID,0.498047,
2010-06-08, 02:04:04,VALID,1003.75,VALID,0,VALID,98.0006,VALID,0,VALID,24.0132,VALID,11,VALID,0.426953,
2010-06-08, 02:05:04,VALID,1003.74,VALID,0,VALID,98.0235,VALID,0,VALID,24.0132,VALID,11,VALID,0.65,
2010-06-08, 02:06:04,VALID,1003.74,VALID,0,VALID,98.0159,VALID,0,VALID,24.0132,VALID,11,VALID,0.538672,
2010-06-08, 02:07:04,VALID,1003.73,VALID,0,VALID,98.0235,VALID,0,VALID,23.9742,VALID,11,VALID,0.402344,
2010-06-08, 02:08:04,VALID,1003.73,VALID,0,VALID,98.0159,VALID,0,VALID,23.9955,VALID,11,VALID,0.532422,
2010-06-08, 02:09:04,VALID,1003.71,VALID,0,VALID,97.993,VALID,0,VALID,23.9742,VALID,9,VALID,0.549219,
2010-06-08, 02:10:04,VALID,1003.72,VALID,0,VALID,97.9853,VALID,0,VALID,23.9937,VALID,9,VALID,0.460938,
2010-06-08, 02:11:04,VALID,1003.71,VALID,0,VALID,97.993,VALID,0,VALID,23.9937,VALID,9,VALID,0.458594,
2010-06-08, 02:12:04,VALID,1003.71,VALID,0,VALID,97.993,VALID,0,VALID,23.9724,VALID,9,VALID,0.369531,
2010-06-08, 02:13:04,VALID,1003.72,VALID,0,VALID,97.9853,VALID,0,VALID,24.0326,VALID,9,VALID,0.423828,
2010-06-08, 02:14:04,VALID,1003.7,VALID,0,VALID,97.9625,VALID,0,VALID,24.0521,VALID,9,VALID,0.375391,
2010-06-08, 02:15:04,VALID,1003.69,VALID,0,VALID,97.9777,VALID,0,VALID,24.0929,VALID,9,VALID,0.423047,
2010-06-08, 02:16:04,VALID,1003.66,VALID,0,VALID,97.993,VALID,0,VALID,24.0326,VALID,9,VALID,0.461328,
2010-06-08, 02:17:04,VALID,1003.69,VALID,0,VALID,98.0159,VALID,0,VALID,23.9937,VALID,9,VALID,0.405078,
2010-06-08, 02:18:04,VALID,1003.67,VALID,0,VALID,98.0006,VALID,0,VALID,23.9742,VALID,9,VALID,0.440625,
2010-06-08, 02:19:04,VALID,1003.67,VALID,0,VALID,98.0311,VALID,0,VALID,23.9761,VALID,9,VALID,0.397266,
2010-06-08, 02:20:04,VALID,1003.71,VALID,0,VALID,98.0311,VALID,0,VALID,23.9353,VALID,9,VALID,0.555078,
2010-06-08, 02:21:04,VALID,1003.73,VALID,0,VALID,98.0235,VALID,0,VALID,23.9353,VALID,9,VALID,0.335938,
2010-06-08, 02:22:04,VALID,1003.75,VALID,0,VALID,98.0464,VALID,0,VALID,23.9159,VALID,9,VALID,0.433984,
2010-06-08, 02:23:04,VALID,1003.76,VALID,0,VALID,98.0235,VALID,0,VALID,23.9371,VALID,9,VALID,0.336328,
2010-06-08, 02:24:04,VALID,1003.75,VALID,0,VALID,98.0311,VALID,0,VALID,23.8964,VALID,9,VALID,0.288672,
2010-06-08, 02:25:04,VALID,1003.79,VALID,0,VALID,98.0387,VALID,0,VALID,23.8769,VALID,9,VALID,0.174219,
2010-06-08, 02:26:04,VALID,1003.8,VALID,0,VALID,98.0464,VALID,0,VALID,23.8769,VALID,9,VALID,0.192969,
2010-06-08, 02:27:04,VALID,1003.84,VALID,0,VALID,98.0693,VALID,0,VALID,23.8769,VALID,9,VALID,0.178906,
2010-06-08, 02:28:04,VALID,1003.86,VALID,0,VALID,98.0235,VALID,0,VALID,23.9159,VALID,9,VALID,0.229687,
2010-06-08, 02:29:04,VALID,1003.87,VALID,0,VALID,97.9701,VALID,0,VALID,23.9742,VALID,9,VALID,0.150781,
2010-06-08, 02:30:04,VALID,1003.88,VALID,0,VALID,97.9548,VALID,0,VALID,24.0326,VALID,9,VALID,0.376953,
2010-06-08, 02:31:04,VALID,1003.87,VALID,0,VALID,97.9014,VALID,0,VALID,24.13,VALID,9,VALID,0.434766,
2010-06-08, 02:32:04,VALID,1003.84,VALID,0,VALID,97.909,VALID,0,VALID,24.1318,VALID,9,VALID,0.574609,
2010-06-08, 02:33:04,VALID,1003.82,VALID,0,VALID,97.9319,VALID,0,VALID,24.1105,VALID,9,VALID,0.7,
2010-06-08, 02:34:04,VALID,1003.84,VALID,0,VALID,97.9243,VALID,0,VALID,24.1494,VALID,9,VALID,0.690234,
2010-06-08, 02:35:04,VALID,1003.84,VALID,0,VALID,97.9319,VALID,0,VALID,24.1902,VALID,8,VALID,0.554688,
2010-06-08, 02:36:04,VALID,1003.82,VALID,0,VALID,97.9167,VALID,0,VALID,24.1884,VALID,8,VALID,0.566406,
2010-06-08, 02:37:04,VALID,1003.81,VALID,0,VALID,97.9319,VALID,0,VALID,24.1884,VALID,8,VALID,0.541406,
2010-06-08, 02:38:04,VALID,1003.79,VALID,0,VALID,97.9319,VALID,0,VALID,24.1902,VALID,8,VALID,0.689844,
2010-06-08, 02:39:04,VALID,1003.74,VALID,0,VALID,97.9396,VALID,0,VALID,24.1902,VALID,8,VALID,0.594531,
2010-06-08, 02:40:04,VALID,1003.75,VALID,0,VALID,97.9701,VALID,0,VALID,24.13,VALID,8,VALID,0.537891,
2010-06-08, 02:41:04,VALID,1003.72,VALID,0,VALID,97.9777,VALID,0,VALID,24.1513,VALID,8,VALID,0.698828,
2010-06-08, 02:42:04,VALID,1003.71,VALID,0,VALID,97.9548,VALID,0,VALID,24.13,VALID,8,VALID,0.525,
2010-06-08, 02:43:04,VALID,1003.68,VALID,0,VALID,97.9701,VALID,0,VALID,24.13,VALID,8,VALID,0.543359,
2010-06-08, 02:44:04,VALID,1003.61,VALID,0,VALID,97.9472,VALID,0,VALID,24.1513,VALID,8,VALID,0.694141,
2010-06-08, 02:45:04,VALID,1003.6,VALID,0,VALID,97.9472,VALID,0,VALID,24.1707,VALID,7,VALID,0.705859,
2010-06-08, 02:46:04,VALID,1003.61,VALID,0,VALID,97.9625,VALID,0,VALID,24.1513,VALID,7,VALID,0.75,
2010-06-08, 02:47:04,VALID,1003.57,VALID,0,VALID,97.9777,VALID,0,VALID,24.1318,VALID,7,VALID,0.657812,
2010-06-08, 02:48:04,VALID,1003.62,VALID,0,VALID,97.993,VALID,0,VALID,24.1123,VALID,7,VALID,0.730078,
2010-06-08, 02:49:04,VALID,1003.61,VALID,0,VALID,97.9701,VALID,0,VALID,24.091,VALID,7,VALID,0.6875,
2010-06-08, 02:50:04,VALID,1003.63,VALID,0,VALID,97.9777,VALID,0,VALID,24.091,VALID,7,VALID,0.599219,
2010-06-08, 02:51:04,VALID,1003.63,VALID,0,VALID,97.9014,VALID,0,VALID,24.1689,VALID,358,VALID,0.614453,
2010-06-08, 02:52:04,VALID,1003.63,VALID,0,VALID,97.9014,VALID,0,VALID,24.2486,VALID,352,VALID,0.464063,
2010-06-08, 02:53:04,VALID,1003.65,VALID,0,VALID,97.8938,VALID,0,VALID,24.2681,VALID,351,VALID,0.677344,
2010-06-08, 02:54:04,VALID,1003.66,VALID,0,VALID,97.8862,VALID,0,VALID,24.2857,VALID,351,VALID,0.370313,
2010-06-08, 02:55:04,VALID,1003.68,VALID,0,VALID,97.8862,VALID,0,VALID,24.2857,VALID,351,VALID,0.412891,
2010-06-08, 02:56:04,VALID,1003.69,VALID,0,VALID,97.9396,VALID,0,VALID,24.2078,VALID,351,VALID,0.533203,
2010-06-08, 02:57:04,VALID,1003.72,VALID,0,VALID,97.9777,VALID,0,VALID,24.1902,VALID,351,VALID,0.419141,
2010-06-08, 02:58:04,VALID,1003.72,VALID,0,VALID,97.9625,VALID,0,VALID,24.1494,VALID,351,VALID,0.334375,
2010-06-08, 02:59:04,VALID,1003.72,VALID,0,VALID,97.9625,VALID,0,VALID,24.13,VALID,351,VALID,0.396875,
2010-06-08, 03:00:04,VALID,1003.7,VALID,0,VALID,97.9701,VALID,0,VALID,24.1513,VALID,351,VALID,0.463672,
2010-06-08, 03:01:04,VALID,1003.72,VALID,0,VALID,97.9777,VALID,0,VALID,24.1318,VALID,351,VALID,0.358203,
2010-06-08, 03:02:04,VALID,1003.66,VALID,0,VALID,97.9701,VALID,0,VALID,24.1105,VALID,351,VALID,0.2875,
2010-06-08, 03:03:04,VALID,1003.68,VALID,0,VALID,97.9853,VALID,0,VALID,24.0697,VALID,351,VALID,0.346484,
2010-06-08, 03:04:04,VALID,1003.63,VALID,0,VALID,98.0006,VALID,0.100563,VALID,24.0716,VALID,351,VALID,0.437891,
2010-06-08, 03:05:04,VALID,1003.65,VALID,0,VALID,97.9625,VALID,0,VALID,24.1123,VALID,351,VALID,0.313672,
2010-06-08, 03:06:04,VALID,1003.63,VALID,0,VALID,98.0006,VALID,0,VALID,24.0503,VALID,351,VALID,0.335938,
2010-06-08, 03:07:04,VALID,1003.63,VALID,0,VALID,98.0006,VALID,0,VALID,24.0521,VALID,351,VALID,0.455469,
2010-06-08, 03:08:04,VALID,1003.61,VALID,0,VALID,98.0159,VALID,0,VALID,24.0929,VALID,351,VALID,0.25625,
2010-06-08, 03:09:04,VALID,1003.62,VALID,0,VALID,98.0006,VALID,0,VALID,24.0716,VALID,351,VALID,0.332422,
2010-06-08, 03:10:04,VALID,1003.62,VALID,0,VALID,98.0082,VALID,0,VALID,24.0521,VALID,351,VALID,0.205469,
2010-06-08, 03:11:04,VALID,1003.62,VALID,0,VALID,98.0082,VALID,0.100563,VALID,24.0521,VALID,351,VALID,0.230469,
2010-06-08, 03:12:04,VALID,1003.64,VALID,0,VALID,97.993,VALID,0,VALID,24.0521,VALID,351,VALID,0.114453,
2010-06-08, 03:13:04,VALID,1003.64,VALID,0,VALID,97.9777,VALID,0,VALID,24.1123,VALID,351,VALID,0.194141,
2010-06-08, 03:14:04,VALID,1003.61,VALID,0,VALID,97.9701,VALID,0,VALID,24.091,VALID,351,VALID,0,
2010-06-08, 03:15:04,VALID,1003.63,VALID,0,VALID,97.9777,VALID,0.100563,VALID,24.1105,VALID,351,VALID,0.0109375,
2010-06-08, 03:16:04,VALID,1003.59,VALID,0,VALID,97.993,VALID,0.100563,VALID,24.1318,VALID,351,VALID,0.320313,
2010-06-08, 03:17:04,VALID,1003.63,VALID,0,VALID,97.993,VALID,0,VALID,24.1123,VALID,351,VALID,0.286328,
2010-06-08, 03:18:04,VALID,1003.62,VALID,0,VALID,98.0006,VALID,0,VALID,24.0716,VALID,351,VALID,0.447656,
2010-06-08, 03:19:04,VALID,1003.61,VALID,0,VALID,98.0159,VALID,0,VALID,24.0716,VALID,351,VALID,0.579687,
2010-06-08, 03:20:04,VALID,1003.6,VALID,0,VALID,98.0082,VALID,0,VALID,24.0929,VALID,351,VALID,0.708984,
2010-06-08, 03:21:04,VALID,1003.6,VALID,0,VALID,97.9701,VALID,0,VALID,24.091,VALID,351,VALID,0.704297,
2010-06-08, 03:22:04,VALID,1003.56,VALID,0,VALID,97.9548,VALID,0,VALID,24.13,VALID,351,VALID,0.766016,
2010-06-08, 03:23:04,VALID,1003.56,VALID,0,VALID,97.9167,VALID,0,VALID,24.1884,VALID,10,VALID,0.831641,
2010-06-08, 03:24:04,VALID,1003.53,VALID,0,VALID,97.8938,VALID,0,VALID,24.2662,VALID,11,VALID,0.660547,
2010-06-08, 03:25:04,VALID,1003.53,VALID,0,VALID,97.8862,VALID,0,VALID,24.2875,VALID,11,VALID,0.580859,
2010-06-08, 03:26:04,VALID,1003.5,VALID,0,VALID,97.8785,VALID,0,VALID,24.3441,VALID,11,VALID,0.456641,
2010-06-08, 03:27:04,VALID,1003.48,VALID,0,VALID,97.8709,VALID,0.100563,VALID,24.3636,VALID,11,VALID,0.355078,
2010-06-08, 03:28:04,VALID,1003.5,VALID,0,VALID,97.8862,VALID,0,VALID,24.3636,VALID,11,VALID,0.133203,
2010-06-08, 03:29:04,VALID,1003.51,VALID,0,VALID,97.9014,VALID,0,VALID,24.3441,VALID,11,VALID,0.021875,
2010-06-08, 03:30:04,VALID,1003.52,VALID,0,VALID,97.9319,VALID,0,VALID,24.3459,VALID,11,VALID,0.258984,
2010-06-08, 03:31:04,VALID,1003.55,VALID,0,VALID,97.9472,VALID,0,VALID,24.3459,VALID,11,VALID,0,
2010-06-08, 03:32:04,VALID,1003.56,VALID,0,VALID,97.9701,VALID,0,VALID,24.3052,VALID,11,VALID,0,
2010-06-08, 03:33:04,VALID,1003.56,VALID,0,VALID,97.9777,VALID,0.100563,VALID,24.2857,VALID,11,VALID,0.0765625,
2010-06-08, 03:34:04,VALID,1003.53,VALID,0,VALID,98.0006,VALID,0,VALID,24.2857,VALID,11,VALID,0.206641,
2010-06-08, 03:35:04,VALID,1003.54,VALID,0,VALID,98.0006,VALID,0,VALID,24.2662,VALID,11,VALID,0.0988281,
2010-06-08, 03:36:04,VALID,1003.56,VALID,0,VALID,98.0082,VALID,0,VALID,24.2468,VALID,11,VALID,0.340234,
2010-06-08, 03:37:04,VALID,1003.56,VALID,0,VALID,97.993,VALID,0,VALID,24.2662,VALID,11,VALID,0.390234,
2010-06-08, 03:38:04,VALID,1003.55,VALID,0,VALID,97.9853,VALID,0,VALID,24.307,VALID,11,VALID,0.478125,
2010-06-08, 03:39:04,VALID,1003.54,VALID,0,VALID,97.9853,VALID,0,VALID,24.3265,VALID,11,VALID,0.469531,
2010-06-08, 03:40:04,VALID,1003.53,VALID,0,VALID,97.993,VALID,0,VALID,24.2857,VALID,8,VALID,0.588672,
2010-06-08, 03:41:04,VALID,1003.52,VALID,0,VALID,98.0006,VALID,0,VALID,24.2857,VALID,358,VALID,0.623047,
2010-06-08, 03:42:04,VALID,1003.48,VALID,0,VALID,98.0235,VALID,0,VALID,24.2273,VALID,357,VALID,0.648828,
2010-06-08, 03:43:04,VALID,1003.49,VALID,0,VALID,98.0845,VALID,0,VALID,24.2078,VALID,357,VALID,0.827344,
2010-06-08, 03:44:04,VALID,1003.49,VALID,0,VALID,98.0311,VALID,0,VALID,24.2078,VALID,355,VALID,0.464453,
2010-06-08, 03:45:04,VALID,1003.48,VALID,0,VALID,98.054,VALID,0,VALID,24.2291,VALID,354,VALID,0.830469,
2010-06-08, 03:46:04,VALID,1003.47,VALID,0,VALID,98.0311,VALID,0,VALID,24.2468,VALID,354,VALID,0.627734,